contact:dominique.lefevre@mio.osupytheas.fr, maurice.libes@osupytheas.fr, didier.mallarino@osupytheas.fr
Project:EMSO http://www.emso-fr.org/EMSO-France
Depth: 2436.0 m
Title:EMSO Ligure Ouest : Data MII capteur AQUADOPP
Date,Latitude,Longitude,X_East,Y_North,Z_Up,Amplitude_X,Amplitude_Y,Amplitude_Z,Batterie,SoundSpeed,Heading,Pitch,Roll,Pressure,TIS,Speed,Direction
, degrees North, degrees East, m.s-1, m.s-1,m.s-1, 1, 1, 1, Volt, m.s-1, degree, degree, degree, dbar, degree_C, m.s-1, degree
2020-11-09T00:04:03,42.805,6.029,0.006,-0.035,0.01,103.0,105.0,100.0,13.3,1505.2,324.7,-0.7,1.8,2470.445,13.3,0.035,170.3
2020-11-09T00:07:03,42.805,6.029,0.015,-0.022,-0.03,102.0,104.0,100.0,13.4,1505.3,324.8,-0.7,1.8,2470.43,13.31,0.026,145.7
2020-11-09T00:10:03,42.805,6.029,-0.003,-0.035,-0.06,102.0,105.0,100.0,13.4,1505.3,327.3,-0.7,1.8,2470.459,13.32,0.035,184.9
2020-11-09T00:13:03,42.805,6.029,0.025,-0.027,0.0,102.0,103.0,101.0,13.4,1505.3,327.6,-0.7,1.8,2470.396,13.32,0.036,137.2
2020-11-09T00:16:03,42.805,6.029,0.006,-0.033,-0.005,102.0,104.0,100.0,13.3,1505.3,326.2,-0.7,1.8,2470.436,13.32,0.033,169.7
2020-11-09T00:19:03,42.805,6.029,0.023,-0.033,0.018,100.0,103.0,102.0,13.4,1505.3,327.1,-0.7,1.8,2470.431,13.32,0.04,145.1
2020-11-09T00:22:03,42.805,6.029,0.006,-0.011,0.016,102.0,103.0,101.0,13.4,1505.3,327.9,-0.7,1.8,2470.386,13.32,0.012,151.4
2020-11-09T00:25:03,42.805,6.029,-0.022,-0.014,-0.014,101.0,106.0,99.0,13.4,1505.3,323.0,-0.7,1.9,2470.457,13.32,0.026,237.5
2020-11-09T00:28:03,42.805,6.029,-0.006,-0.041,-0.003,103.0,105.0,101.0,13.4,1505.3,328.1,-0.7,1.8,2470.413,13.32,0.041,188.3
2020-11-09T00:31:03,42.805,6.029,0.019,-0.04,-0.008,101.0,104.0,101.0,13.4,1505.3,326.1,-0.7,1.8,2470.409,13.32,0.044,154.6
2020-11-09T00:34:03,42.805,6.029,0.005,-0.033,-0.017,103.0,104.0,100.0,13.4,1505.3,327.5,-0.7,1.8,2470.427,13.32,0.033,171.4
2020-11-09T00:37:03,42.805,6.029,0.017,-0.03,-0.006,100.0,105.0,100.0,13.4,1505.3,323.2,-0.7,1.8,2470.42,13.32,0.034,150.5
2020-11-09T00:40:03,42.805,6.029,0.032,-0.038,-0.018,102.0,104.0,100.0,13.4,1505.3,324.5,-0.7,1.9,2470.437,13.32,0.049,139.9
2020-11-09T00:43:03,42.805,6.029,0.02,-0.033,-0.003,101.0,104.0,101.0,13.3,1505.3,327.7,-0.7,1.8,2470.387,13.32,0.038,148.8
2020-11-09T00:46:03,42.805,6.029,-0.026,-0.031,-0.025,102.0,105.0,100.0,13.4,1505.3,326.3,-0.7,1.8,2470.402,13.33,0.04,220.0
2020-11-09T00:49:03,42.805,6.029,0.003,-0.031,-0.005,103.0,104.0,100.0,13.4,1505.3,324.5,-0.7,1.8,2470.453,13.33,0.031,174.5
2020-11-09T00:52:03,42.805,6.029,0.016,-0.015,-0.009,104.0,104.0,100.0,13.4,1505.3,326.3,-0.7,1.8,2470.397,13.33,0.021,133.1
2020-11-09T00:55:03,42.805,6.029,0.019,-0.016,0.013,102.0,104.0,99.0,13.4,1505.3,324.3,-0.7,1.9,2470.406,13.33,0.024,130.1
2020-11-09T00:58:03,42.805,6.029,0.026,-0.014,0.014,101.0,104.0,101.0,13.4,1505.3,326.5,-0.7,1.8,2470.408,13.32,0.029,118.3
2020-11-09T01:04:03,42.805,6.029,0.046,-0.029,0.015,104.0,106.0,102.0,13.4,1505.3,326.6,-0.7,1.8,2470.475,13.31,0.054,122.2
2020-11-09T01:07:03,42.805,6.029,0.008,-0.017,0.01,103.0,105.0,102.0,13.4,1505.3,327.0,-0.7,1.8,2470.447,13.31,0.018,154.8
2020-11-09T01:10:03,42.805,6.029,0.047,-0.024,-0.012,102.0,103.0,100.0,13.4,1505.3,326.7,-0.7,1.8,2470.431,13.32,0.052,117.0
2020-11-09T01:13:03,42.805,6.029,0.03,-0.034,-0.002,104.0,102.0,100.0,13.4,1505.3,326.0,-0.7,1.8,2470.427,13.32,0.045,138.6
2020-11-09T01:16:03,42.805,6.029,0.047,-0.019,0.012,100.0,103.0,101.0,13.4,1505.3,326.8,-0.7,1.8,2470.421,13.32,0.05,112.0
2020-11-09T01:19:03,42.805,6.029,0.036,-0.02,0.023,104.0,104.0,100.0,13.4,1505.3,325.9,-0.7,1.8,2470.453,13.32,0.041,119.1
2020-11-09T01:22:03,42.805,6.029,0.051,-0.025,0.021,102.0,104.0,100.0,13.4,1505.3,326.5,-0.7,1.8,2470.462,13.32,0.056,116.1
2020-11-09T01:25:03,42.805,6.029,0.041,-0.029,-0.016,103.0,105.0,101.0,13.3,1505.3,325.0,-0.7,1.8,2470.407,13.32,0.05,125.3
2020-11-09T01:28:03,42.805,6.029,0.015,-0.003,0.013,103.0,104.0,100.0,13.3,1505.3,326.0,-0.7,1.8,2470.425,13.32,0.015,101.3
2020-11-09T01:31:03,42.805,6.029,0.024,-0.025,0.02,103.0,105.0,99.0,13.4,1505.3,323.2,-0.7,1.8,2470.436,13.32,0.034,136.2
2020-11-09T01:34:03,42.805,6.029,0.02,-0.02,-0.001,101.0,104.0,101.0,13.4,1505.3,326.0,-0.7,1.8,2470.432,13.32,0.028,135.0
2020-11-09T01:37:03,42.805,6.029,0.026,-0.026,-0.019,101.0,104.0,101.0,13.3,1505.3,327.2,-0.7,1.8,2470.43,13.32,0.036,135.0
2020-11-09T01:40:03,42.805,6.029,-0.027,-0.006,-0.035,103.0,104.0,100.0,13.4,1505.3,325.1,-0.7,1.8,2470.41,13.32,0.027,257.5
2020-11-09T01:43:03,42.805,6.029,0.023,-0.023,0.005,104.0,104.0,100.0,13.3,1505.3,325.2,-0.7,1.9,2470.434,13.32,0.032,135.0
2020-11-09T01:46:03,42.805,6.029,0.023,-0.026,0.006,103.0,103.0,100.0,13.4,1505.3,322.9,-0.7,1.8,2470.396,13.32,0.034,138.5
2020-11-09T01:49:03,42.805,6.029,0.018,-0.022,-0.02,103.0,103.0,100.0,13.4,1505.3,326.2,-0.7,1.8,2470.42,13.32,0.028,140.7
2020-11-09T01:52:03,42.805,6.029,0.017,-0.028,0.004,103.0,103.0,100.0,13.3,1505.3,326.7,-0.7,1.8,2470.372,13.32,0.032,148.7
2020-11-09T01:55:03,42.805,6.029,0.038,-0.039,-0.01,102.0,102.0,101.0,13.4,1505.3,325.7,-0.7,1.8,2470.394,13.32,0.054,135.7
2020-11-09T01:58:03,42.805,6.029,0.014,-0.028,-0.008,102.0,105.0,101.0,13.4,1505.3,324.3,-0.7,1.8,2470.454,13.32,0.031,153.4
2020-11-09T02:04:03,42.805,6.029,0.048,-0.018,0.017,103.0,104.0,101.0,13.4,1505.2,326.5,-0.7,1.8,2470.458,13.3,0.051,110.6
2020-11-09T02:07:03,42.805,6.029,0.006,-0.028,-0.018,103.0,104.0,101.0,13.4,1505.3,326.0,-0.7,1.8,2470.466,13.31,0.028,167.9
2020-11-09T02:10:03,42.805,6.029,0.058,-0.021,0.015,103.0,103.0,99.0,13.3,1505.3,324.5,-0.7,1.8,2470.477,13.32,0.061,109.9
2020-11-09T02:13:03,42.805,6.029,0.027,-0.027,0.0,101.0,105.0,100.0,13.4,1505.3,326.7,-0.7,1.8,2470.436,13.32,0.038,135.0
2020-11-09T02:16:03,42.805,6.029,0.026,-0.013,0.019,101.0,105.0,101.0,13.4,1505.3,325.7,-0.7,1.8,2470.448,13.32,0.029,116.6
2020-11-09T02:19:03,42.805,6.029,0.034,-0.032,-0.012,100.0,105.0,100.0,13.3,1505.3,326.5,-0.7,1.8,2470.435,13.32,0.046,133.3
2020-11-09T02:22:03,42.805,6.029,0.01,-0.03,-0.025,102.0,105.0,100.0,13.3,1505.3,327.2,-0.7,1.8,2470.435,13.32,0.031,161.6
2020-11-09T02:25:03,42.805,6.029,0.05,-0.025,0.024,104.0,104.0,99.0,13.4,1505.3,326.3,-0.7,1.8,2470.4,13.32,0.055,116.6
2020-11-09T02:28:03,42.805,6.029,0.022,-0.03,-0.014,100.0,105.0,100.0,13.3,1505.3,327.1,-0.7,1.8,2470.448,13.32,0.037,143.7
2020-11-09T02:31:03,42.805,6.029,0.043,-0.012,0.011,102.0,104.0,100.0,13.4,1505.3,325.2,-0.7,1.8,2470.372,13.32,0.044,105.6
2020-11-09T02:34:03,42.805,6.029,0.057,-0.027,0.013,103.0,103.0,99.0,13.3,1505.3,324.6,-0.7,1.8,2470.406,13.32,0.063,115.3
2020-11-09T02:37:03,42.805,6.029,0.046,-0.016,-0.007,103.0,104.0,101.0,13.4,1505.3,327.0,-0.7,1.8,2470.431,13.32,0.048,109.2
2020-11-09T02:40:03,42.805,6.029,0.033,-0.024,-0.011,101.0,104.0,100.0,13.4,1505.3,326.5,-0.7,1.8,2470.395,13.32,0.04,126.0
2020-11-09T02:43:03,42.805,6.029,0.006,-0.017,-0.038,101.0,106.0,101.0,13.4,1505.3,326.2,-0.7,1.8,2470.41,13.32,0.018,160.6
2020-11-09T02:46:03,42.805,6.029,0.023,0.003,0.0,101.0,104.0,100.0,13.4,1505.3,324.0,-0.7,1.8,2470.4,13.32,0.023,82.6
2020-11-09T02:49:03,42.805,6.029,0.055,-0.026,0.032,103.0,104.0,100.0,13.4,1505.3,326.6,-0.7,1.9,2470.411,13.32,0.06,115.3
2020-11-09T02:52:03,42.805,6.029,0.032,-0.029,-0.017,102.0,103.0,102.0,13.4,1505.3,325.8,-0.7,1.8,2470.357,13.32,0.043,132.2
2020-11-09T02:55:03,42.805,6.029,0.025,-0.009,-0.023,100.0,105.0,101.0,13.4,1505.3,326.6,-0.7,1.8,2470.427,13.32,0.026,109.8
2020-11-09T02:58:03,42.805,6.029,0.046,-0.016,0.032,102.0,104.0,100.0,13.4,1505.3,323.3,-0.7,1.8,2470.435,13.32,0.048,109.2
2020-11-09T03:04:03,42.805,6.029,0.045,-0.018,-0.016,102.0,105.0,100.0,13.4,1505.2,324.5,-0.8,1.8,2470.421,13.3,0.048,111.8
2020-11-09T03:07:03,42.805,6.029,0.049,-0.021,-0.006,104.0,105.0,101.0,13.3,1505.3,324.5,-0.7,1.8,2470.415,13.31,0.053,113.2
2020-11-09T03:10:03,42.805,6.029,0.047,-0.033,-0.007,103.0,105.0,101.0,13.4,1505.3,326.4,-0.7,1.8,2470.477,13.31,0.057,125.1
2020-11-09T03:13:03,42.805,6.029,0.028,-0.015,-0.024,101.0,105.0,100.0,13.4,1505.3,326.4,-0.7,1.8,2470.451,13.32,0.031,118.2
2020-11-09T03:16:03,42.805,6.029,0.049,-0.013,0.011,104.0,106.0,101.0,13.4,1505.3,324.9,-0.7,1.8,2470.423,13.32,0.05,104.9
2020-11-09T03:19:03,42.805,6.029,0.037,-0.016,0.003,101.0,106.0,101.0,13.3,1505.3,326.3,-0.7,1.8,2470.439,13.32,0.04,113.4
2020-11-09T03:22:03,42.805,6.029,0.036,-0.032,0.036,104.0,105.0,100.0,13.4,1505.3,327.1,-0.7,1.8,2470.394,13.32,0.048,131.6
2020-11-09T03:25:03,42.805,6.029,0.051,-0.015,0.009,102.0,105.0,100.0,13.3,1505.3,325.9,-0.7,1.8,2470.418,13.32,0.053,106.4
2020-11-09T03:28:03,42.805,6.029,0.059,-0.014,0.013,101.0,105.0,101.0,13.4,1505.3,324.8,-0.7,1.8,2470.454,13.32,0.06,103.3
2020-11-09T03:31:03,42.805,6.029,0.047,-0.042,0.0,102.0,105.0,101.0,13.4,1505.3,326.4,-0.7,1.8,2470.415,13.32,0.063,131.8
2020-11-09T03:34:03,42.805,6.029,0.014,-0.024,0.0,102.0,106.0,100.0,13.4,1505.3,323.1,-0.7,1.8,2470.376,13.32,0.027,149.7
2020-11-09T03:37:03,42.805,6.029,0.051,-0.02,0.021,102.0,105.0,101.0,13.3,1505.3,326.9,-0.7,1.8,2470.406,13.32,0.054,111.4
2020-11-09T03:40:03,42.805,6.029,0.041,-0.021,-0.004,103.0,106.0,100.0,13.3,1505.3,327.5,-0.7,1.8,2470.409,13.32,0.046,117.1
2020-11-09T03:43:03,42.805,6.029,0.042,-0.026,-0.002,102.0,106.0,100.0,13.4,1505.3,323.7,-0.7,1.8,2470.408,13.32,0.049,121.8
2020-11-09T03:46:03,42.805,6.029,0.031,-0.018,0.024,102.0,105.0,100.0,13.3,1505.3,323.4,-0.7,1.8,2470.427,13.32,0.035,120.1
2020-11-09T03:49:03,42.805,6.029,0.044,-0.021,-0.031,102.0,105.0,100.0,13.3,1505.3,326.4,-0.7,1.8,2470.387,13.32,0.048,115.5
2020-11-09T03:52:03,42.805,6.029,0.069,-0.028,-0.003,103.0,105.0,101.0,13.3,1505.3,324.0,-0.7,1.8,2470.421,13.32,0.074,112.1
2020-11-09T03:55:03,42.805,6.029,0.049,-0.045,0.003,103.0,105.0,100.0,13.3,1505.3,327.0,-0.7,1.9,2470.39,13.32,0.066,132.6
2020-11-09T03:58:03,42.805,6.029,0.032,-0.028,-0.018,103.0,105.0,100.0,13.4,1505.3,328.3,-0.7,1.8,2470.379,13.32,0.042,131.2
2020-11-09T04:04:03,42.805,6.029,0.028,-0.037,0.012,104.0,105.0,101.0,13.3,1505.2,323.8,-0.7,1.9,2470.432,13.3,0.046,142.9
2020-11-09T04:07:03,42.805,6.029,0.028,-0.029,0.005,102.0,105.0,101.0,13.4,1505.3,323.8,-0.7,1.8,2470.426,13.31,0.04,136.0
2020-11-09T04:10:03,42.805,6.029,0.031,-0.039,-0.004,103.0,105.0,101.0,13.4,1505.3,323.0,-0.7,1.8,2470.465,13.31,0.049,141.5
2020-11-09T04:13:03,42.805,6.029,0.045,-0.028,-0.011,104.0,105.0,101.0,13.4,1505.3,323.3,-0.7,1.8,2470.415,13.32,0.053,121.9
2020-11-09T04:16:03,42.805,6.029,0.044,-0.022,0.023,103.0,106.0,101.0,13.3,1505.3,325.5,-0.7,1.8,2470.451,13.32,0.049,116.6
2020-11-09T04:19:03,42.805,6.029,0.052,-0.007,0.041,102.0,105.0,102.0,13.3,1505.3,325.2,-0.7,1.8,2470.394,13.32,0.052,97.7
2020-11-09T04:22:03,42.805,6.029,0.054,-0.017,-0.002,104.0,105.0,101.0,13.3,1505.3,325.4,-0.7,1.9,2470.463,13.32,0.056,107.5
2020-11-09T04:25:03,42.805,6.029,0.025,-0.034,-0.013,103.0,105.0,101.0,13.4,1505.3,326.8,-0.7,1.8,2470.42,13.32,0.042,143.7
2020-11-09T04:28:03,42.805,6.029,0.042,-0.032,0.013,102.0,105.0,101.0,13.4,1505.3,325.9,-0.7,1.8,2470.412,13.32,0.052,127.3
2020-11-09T04:31:03,42.805,6.029,0.052,-0.039,0.005,103.0,104.0,100.0,13.3,1505.3,325.4,-0.7,1.8,2470.445,13.32,0.064,126.9
2020-11-09T04:34:03,42.805,6.029,0.05,-0.031,0.013,104.0,105.0,101.0,13.3,1505.3,323.0,-0.7,1.8,2470.4,13.32,0.058,121.8
2020-11-09T04:37:03,42.805,6.029,0.065,-0.041,-0.015,103.0,105.0,101.0,13.3,1505.3,326.2,-0.7,1.8,2470.404,13.32,0.076,122.2
2020-11-09T04:40:03,42.805,6.029,0.075,-0.04,-0.022,103.0,104.0,100.0,13.4,1505.3,326.2,-0.7,1.8,2470.385,13.32,0.084,118.1
2020-11-09T04:43:03,42.805,6.029,0.038,-0.039,-0.032,103.0,105.0,101.0,13.4,1505.3,324.8,-0.7,1.9,2470.392,13.32,0.054,135.7
2020-11-09T04:46:03,42.805,6.029,0.035,-0.027,-0.003,102.0,105.0,101.0,13.3,1505.3,327.2,-0.7,1.8,2470.397,13.32,0.044,127.7
2020-11-09T04:49:03,42.805,6.029,0.036,-0.026,-0.01,104.0,105.0,100.0,13.4,1505.3,325.4,-0.7,1.8,2470.395,13.32,0.044,125.8
2020-11-09T04:52:03,42.805,6.029,0.06,-0.05,-0.001,103.0,105.0,101.0,13.4,1505.3,325.6,-0.7,1.8,2470.391,13.32,0.078,129.8
2020-11-09T04:55:03,42.805,6.029,0.048,-0.043,0.018,103.0,106.0,100.0,13.3,1505.3,326.7,-0.7,1.9,2470.385,13.32,0.064,131.9
2020-11-09T04:58:03,42.805,6.029,0.047,-0.018,0.0,103.0,106.0,100.0,13.4,1505.3,323.6,-0.7,1.8,2470.443,13.32,0.05,111.0
2020-11-09T05:04:03,42.805,6.029,0.032,-0.025,0.004,104.0,106.0,102.0,13.4,1505.2,324.4,-0.7,1.8,2470.404,13.3,0.04,128.0
2020-11-09T05:07:03,42.805,6.029,0.047,-0.029,-0.006,104.0,105.0,100.0,13.3,1505.3,324.1,-0.7,1.8,2470.423,13.31,0.055,121.7
2020-11-09T05:10:03,42.805,6.029,0.07,-0.037,0.001,103.0,105.0,101.0,13.4,1505.3,327.1,-0.7,1.8,2470.41,13.31,0.079,117.9
2020-11-09T05:13:03,42.805,6.029,0.029,-0.014,0.0,103.0,105.0,100.0,13.4,1505.3,323.2,-0.7,1.8,2470.404,13.31,0.032,115.8
2020-11-09T05:16:03,42.805,6.029,0.035,-0.038,0.007,104.0,105.0,101.0,13.4,1505.3,325.3,-0.7,1.8,2470.389,13.32,0.051,137.4
2020-11-09T05:19:03,42.805,6.029,0.049,-0.033,-0.012,103.0,105.0,101.0,13.4,1505.3,324.7,-0.7,1.8,2470.374,13.32,0.059,124.0
2020-11-09T05:22:03,42.805,6.029,0.084,-0.028,0.017,104.0,105.0,102.0,13.4,1505.3,325.2,-0.7,1.8,2470.413,13.32,0.088,108.4
2020-11-09T05:25:03,42.805,6.029,0.048,-0.044,-0.013,104.0,104.0,100.0,13.4,1505.3,326.3,-0.7,1.8,2470.391,13.32,0.065,132.5
2020-11-09T05:28:03,42.805,6.029,0.062,-0.034,0.01,104.0,104.0,100.0,13.4,1505.3,327.6,-0.7,1.8,2470.431,13.32,0.07,118.7
2020-11-09T05:31:03,42.805,6.029,0.057,-0.049,0.007,103.0,105.0,100.0,13.4,1505.3,328.4,-0.7,1.8,2470.397,13.32,0.075,130.7
2020-11-09T05:34:03,42.805,6.029,0.059,-0.026,-0.005,104.0,105.0,101.0,13.4,1505.3,327.6,-0.7,1.8,2470.362,13.32,0.064,113.8
2020-11-09T05:37:03,42.805,6.029,0.086,-0.044,0.002,102.0,104.0,101.0,13.4,1505.3,328.1,-0.7,1.8,2470.393,13.32,0.096,117.1
2020-11-09T05:40:03,42.805,6.029,0.068,-0.053,0.004,103.0,105.0,101.0,13.4,1505.3,328.4,-0.7,1.8,2470.396,13.32,0.086,127.9
2020-11-09T05:43:03,42.805,6.029,0.05,-0.035,-0.003,105.0,105.0,101.0,13.4,1505.3,324.7,-0.7,1.8,2470.384,13.32,0.061,125.0
2020-11-09T05:46:03,42.805,6.029,0.075,-0.035,-0.003,103.0,104.0,101.0,13.4,1505.3,324.5,-0.7,1.8,2470.395,13.32,0.082,115.0
2020-11-09T05:49:03,42.805,6.029,0.07,-0.02,-0.003,104.0,105.0,100.0,13.4,1505.3,326.1,-0.7,1.8,2470.361,13.32,0.072,105.9
2020-11-09T05:52:03,42.805,6.029,0.053,-0.049,-0.013,103.0,105.0,101.0,13.3,1505.3,325.5,-0.7,1.8,2470.392,13.32,0.072,132.8
2020-11-09T05:55:03,42.805,6.029,0.08,-0.037,0.018,104.0,105.0,101.0,13.4,1505.3,323.7,-0.7,1.8,2470.363,13.32,0.088,114.8
2020-11-09T05:58:03,42.805,6.029,0.034,-0.024,-0.026,104.0,104.0,101.0,13.4,1505.3,324.7,-0.7,1.8,2470.344,13.32,0.041,125.2
2020-11-09T06:04:03,42.805,6.029,0.093,-0.033,0.014,103.0,104.0,101.0,13.4,1505.2,324.6,-0.8,1.8,2470.425,13.3,0.098,109.5
2020-11-09T06:07:03,42.805,6.029,0.053,-0.039,0.005,104.0,104.0,101.0,13.4,1505.3,327.3,-0.7,1.8,2470.386,13.31,0.065,126.3
2020-11-09T06:10:03,42.805,6.029,0.04,-0.038,-0.002,104.0,106.0,101.0,13.4,1505.3,327.7,-0.7,1.8,2470.432,13.31,0.055,133.5
2020-11-09T06:13:03,42.805,6.029,0.065,-0.022,-0.016,103.0,105.0,101.0,13.4,1505.3,325.1,-0.7,1.8,2470.374,13.32,0.068,108.7
2020-11-09T06:16:03,42.805,6.029,0.072,-0.048,0.003,104.0,105.0,101.0,13.4,1505.3,325.6,-0.7,1.8,2470.376,13.32,0.086,123.7
2020-11-09T06:19:03,42.805,6.029,0.065,-0.038,-0.019,103.0,104.0,101.0,13.4,1505.3,325.2,-0.7,1.8,2470.363,13.32,0.075,120.3
2020-11-09T06:22:03,42.805,6.029,0.084,-0.043,0.029,104.0,105.0,100.0,13.4,1505.3,325.0,-0.7,1.8,2470.395,13.32,0.094,117.1
2020-11-09T06:25:03,42.805,6.029,0.079,-0.051,0.012,104.0,105.0,101.0,13.3,1505.3,324.5,-0.7,1.8,2470.396,13.32,0.094,122.8
2020-11-09T06:28:03,42.805,6.029,0.043,-0.057,0.004,104.0,105.0,101.0,13.4,1505.3,324.9,-0.7,1.8,2470.393,13.32,0.071,143.0
2020-11-09T06:31:03,42.805,6.029,0.044,-0.04,-0.029,104.0,103.0,101.0,13.3,1505.3,324.5,-0.7,1.8,2470.3,13.32,0.059,132.3
2020-11-09T06:34:03,42.805,6.029,0.05,-0.042,-0.009,104.0,104.0,101.0,13.4,1505.3,324.9,-0.7,1.8,2470.407,13.32,0.065,130.0
2020-11-09T06:37:03,42.805,6.029,0.054,-0.037,-0.03,104.0,104.0,101.0,13.4,1505.3,324.8,-0.7,1.8,2470.388,13.32,0.065,124.4
2020-11-09T06:40:03,42.805,6.029,0.053,-0.05,0.017,105.0,104.0,102.0,13.4,1505.3,326.1,-0.7,1.8,2470.352,13.32,0.072,133.3
2020-11-09T06:43:03,42.805,6.029,0.064,-0.059,-0.026,104.0,104.0,101.0,13.4,1505.3,323.1,-0.7,1.8,2470.394,13.32,0.087,132.7
2020-11-09T06:46:03,42.805,6.029,0.045,-0.052,-0.004,103.0,105.0,102.0,13.3,1505.3,326.6,-0.7,1.8,2470.346,13.32,0.068,139.1
2020-11-09T06:49:03,42.805,6.029,0.042,-0.042,-0.01,104.0,104.0,101.0,13.4,1505.3,325.4,-0.7,1.8,2470.379,13.32,0.059,135.0
2020-11-09T06:52:03,42.805,6.029,0.063,-0.055,0.004,104.0,103.0,101.0,13.3,1505.3,325.2,-0.7,1.8,2470.357,13.32,0.083,131.1
2020-11-09T06:55:03,42.805,6.029,0.061,-0.048,-0.008,104.0,105.0,101.0,13.3,1505.3,328.0,-0.7,1.8,2470.362,13.32,0.077,128.2
2020-11-09T06:58:03,42.805,6.029,0.074,-0.045,-0.015,104.0,104.0,100.0,13.3,1505.3,323.8,-0.7,1.8,2470.393,13.32,0.086,121.3
2020-11-09T07:04:03,42.805,6.029,0.051,-0.018,0.012,104.0,105.0,101.0,13.3,1505.2,323.3,-0.7,1.8,2470.406,13.3,0.054,109.4
2020-11-09T07:07:03,42.805,6.029,0.024,-0.047,0.019,103.0,105.0,102.0,13.3,1505.3,327.5,-0.7,1.8,2470.381,13.31,0.052,153.0
2020-11-09T07:10:03,42.805,6.029,0.061,-0.059,-0.011,104.0,105.0,101.0,13.3,1505.3,323.2,-0.7,1.8,2470.42,13.31,0.084,134.0
2020-11-09T07:13:03,42.805,6.029,0.045,-0.052,0.012,105.0,106.0,102.0,13.3,1505.3,324.5,-0.7,1.8,2470.4,13.31,0.068,139.1
2020-11-09T07:16:03,42.805,6.029,0.045,-0.048,-0.007,104.0,106.0,102.0,13.4,1505.3,325.9,-0.7,1.8,2470.422,13.32,0.065,136.9
2020-11-09T07:19:03,42.805,6.029,0.049,-0.048,0.0,104.0,105.0,101.0,13.3,1505.3,325.1,-0.7,1.8,2470.393,13.32,0.068,134.4
2020-11-09T07:22:03,42.805,6.029,0.048,-0.051,0.004,105.0,105.0,101.0,13.4,1505.3,325.9,-0.7,1.8,2470.389,13.32,0.07,136.7
2020-11-09T07:25:03,42.805,6.029,0.055,-0.054,-0.025,105.0,105.0,102.0,13.4,1505.3,325.5,-0.7,1.9,2470.439,13.32,0.077,134.5
2020-11-09T07:28:03,42.805,6.029,0.063,-0.048,0.019,104.0,106.0,102.0,13.4,1505.3,324.9,-0.7,1.8,2470.393,13.32,0.079,127.3
2020-11-09T07:31:03,42.805,6.029,0.059,-0.053,0.0,105.0,104.0,101.0,13.4,1505.3,324.2,-0.7,1.8,2470.387,13.32,0.079,131.9
2020-11-09T07:34:03,42.805,6.029,0.081,-0.055,0.01,105.0,104.0,103.0,13.4,1505.3,324.6,-0.7,1.8,2470.401,13.32,0.097,124.2
2020-11-09T07:37:03,42.805,6.029,0.063,-0.06,0.002,106.0,105.0,102.0,13.4,1505.3,328.1,-0.7,1.8,2470.382,13.32,0.086,133.6
2020-11-09T07:40:03,42.805,6.029,0.058,-0.057,0.004,106.0,105.0,102.0,13.3,1505.3,325.0,-0.7,1.8,2470.392,13.32,0.081,134.5
2020-11-09T07:43:03,42.805,6.029,0.065,-0.046,0.02,104.0,106.0,101.0,13.4,1505.3,323.7,-0.7,1.9,2470.357,13.32,0.079,125.3
2020-11-09T07:46:03,42.805,6.029,0.088,-0.049,0.009,104.0,104.0,102.0,13.4,1505.3,326.6,-0.7,1.9,2470.393,13.32,0.1,119.1
2020-11-09T07:49:03,42.805,6.029,0.054,-0.034,0.006,105.0,105.0,102.0,13.4,1505.3,324.2,-0.7,1.8,2470.399,13.32,0.063,122.2
2020-11-09T07:52:03,42.805,6.029,0.04,-0.064,0.0,105.0,105.0,101.0,13.4,1505.3,325.6,-0.7,1.8,2470.391,13.32,0.075,148.0
2020-11-09T07:55:03,42.805,6.029,0.086,-0.039,0.002,106.0,104.0,101.0,13.4,1505.3,326.7,-0.7,1.8,2470.376,13.32,0.094,114.4
2020-11-09T07:58:03,42.805,6.029,0.06,-0.054,0.014,107.0,105.0,101.0,13.4,1505.3,324.9,-0.7,1.8,2470.415,13.32,0.08,132.0
2020-11-09T08:04:03,42.805,6.029,0.054,-0.062,-0.015,106.0,105.0,101.0,13.4,1505.2,327.8,-0.7,1.8,2470.434,13.3,0.082,138.9
2020-11-09T08:07:03,42.805,6.029,0.059,-0.049,0.002,105.0,105.0,103.0,13.4,1505.3,326.6,-0.7,1.8,2470.412,13.31,0.076,129.7
2020-11-09T08:10:03,42.805,6.029,0.062,-0.055,0.008,105.0,105.0,102.0,13.4,1505.3,323.8,-0.7,1.8,2470.378,13.31,0.082,131.6
2020-11-09T08:13:03,42.805,6.029,0.057,-0.058,-0.017,105.0,105.0,102.0,13.4,1505.3,327.6,-0.7,1.8,2470.416,13.31,0.081,135.5
2020-11-09T08:16:03,42.805,6.029,0.063,-0.064,0.001,105.0,105.0,101.0,13.3,1505.3,328.2,-0.7,1.8,2470.389,13.32,0.089,135.4
2020-11-09T08:19:03,42.805,6.029,0.071,-0.069,0.001,105.0,105.0,103.0,13.4,1505.3,324.6,-0.7,1.8,2470.372,13.32,0.099,134.2
2020-11-09T08:22:03,42.805,6.029,0.047,-0.051,-0.012,106.0,106.0,103.0,13.3,1505.3,326.1,-0.7,1.8,2470.37,13.32,0.069,137.3
2020-11-09T08:25:03,42.805,6.029,0.079,-0.083,-0.016,105.0,105.0,102.0,13.4,1505.3,324.5,-0.7,1.8,2470.396,13.32,0.114,136.4
2020-11-09T08:28:03,42.805,6.029,0.052,-0.056,0.005,104.0,105.0,101.0,13.3,1505.3,325.3,-0.7,1.8,2470.383,13.32,0.076,137.1
2020-11-09T08:31:03,42.805,6.029,0.062,-0.056,0.022,106.0,104.0,102.0,13.4,1505.3,327.6,-0.7,1.8,2470.351,13.32,0.083,132.1
2020-11-09T08:34:03,42.805,6.029,0.074,-0.056,0.012,105.0,104.0,101.0,13.4,1505.3,326.0,-0.7,1.8,2470.387,13.32,0.092,127.1
2020-11-09T08:37:03,42.805,6.029,0.063,-0.043,0.021,105.0,104.0,103.0,13.3,1505.3,323.4,-0.7,1.8,2470.353,13.32,0.076,124.3
2020-11-09T08:40:03,42.805,6.029,0.053,-0.066,0.0,105.0,105.0,102.0,13.4,1505.3,323.6,-0.7,1.9,2470.414,13.32,0.084,141.2
2020-11-09T08:43:03,42.805,6.029,0.065,-0.066,0.003,106.0,106.0,101.0,13.4,1505.3,326.4,-0.7,1.8,2470.343,13.32,0.092,135.4
2020-11-09T08:46:03,42.805,6.029,0.092,-0.055,0.025,104.0,106.0,102.0,13.4,1505.3,327.5,-0.7,1.8,2470.394,13.32,0.107,120.9
2020-11-09T08:49:03,42.805,6.029,0.06,-0.052,-0.007,106.0,105.0,102.0,13.4,1505.3,326.3,-0.7,1.8,2470.413,13.32,0.079,130.9
2020-11-09T08:52:03,42.805,6.029,0.056,-0.05,0.017,106.0,106.0,102.0,13.3,1505.3,326.5,-0.7,1.8,2470.408,13.32,0.075,131.8
2020-11-09T08:55:03,42.805,6.029,0.055,-0.066,0.0,104.0,106.0,102.0,13.4,1505.3,327.9,-0.7,1.8,2470.416,13.32,0.085,140.2
2020-11-09T08:58:03,42.805,6.029,0.059,-0.076,-0.012,105.0,106.0,102.0,13.4,1505.3,324.2,-0.7,1.9,2470.379,13.32,0.096,142.2
2020-11-09T09:04:03,42.805,6.029,0.066,-0.058,0.008,104.0,105.0,101.0,13.4,1505.2,324.5,-0.7,1.8,2470.43,13.3,0.087,131.3
2020-11-09T09:07:03,42.805,6.029,0.043,-0.059,0.005,105.0,105.0,102.0,13.4,1505.3,326.7,-0.7,1.8,2470.416,13.31,0.073,143.9
2020-11-09T09:10:03,42.805,6.029,0.053,-0.052,-0.013,105.0,104.0,102.0,13.4,1505.3,326.1,-0.7,1.8,2470.41,13.31,0.074,134.5
2020-11-09T09:13:03,42.805,6.029,0.032,-0.05,0.0,105.0,106.0,102.0,13.3,1505.3,326.8,-0.7,1.8,2470.447,13.32,0.059,147.4
2020-11-09T09:16:03,42.805,6.029,0.075,-0.065,0.012,105.0,106.0,102.0,13.4,1505.3,325.7,-0.7,1.8,2470.399,13.32,0.099,130.9
2020-11-09T09:19:03,42.805,6.029,0.095,-0.076,0.01,106.0,105.0,102.0,13.3,1505.3,324.6,-0.7,1.8,2470.414,13.32,0.121,128.7
2020-11-09T09:22:03,42.805,6.029,0.074,-0.043,-0.004,105.0,106.0,101.0,13.4,1505.3,324.2,-0.7,1.8,2470.483,13.32,0.085,120.2
2020-11-09T09:25:03,42.805,6.029,0.058,-0.055,0.012,105.0,106.0,102.0,13.4,1505.3,324.6,-0.7,1.8,2470.427,13.32,0.079,133.5
2020-11-09T09:28:03,42.805,6.029,0.037,-0.053,-0.03,106.0,105.0,102.0,13.3,1505.3,324.9,-0.7,1.8,2470.411,13.32,0.064,145.1
2020-11-09T09:31:03,42.805,6.029,0.079,-0.064,0.021,105.0,105.0,103.0,13.4,1505.3,325.3,-0.7,1.8,2470.418,13.32,0.101,129.0
2020-11-09T09:34:03,42.805,6.029,0.041,-0.058,0.012,105.0,105.0,102.0,13.4,1505.3,325.5,-0.7,1.9,2470.394,13.32,0.071,144.7
2020-11-09T09:37:03,42.805,6.029,0.066,-0.07,0.002,105.0,106.0,103.0,13.4,1505.3,323.6,-0.7,1.8,2470.389,13.32,0.096,136.7
2020-11-09T09:40:03,42.805,6.029,0.07,-0.048,0.003,106.0,105.0,102.0,13.3,1505.3,326.6,-0.7,1.8,2470.433,13.32,0.084,124.4
2020-11-09T09:43:03,42.805,6.029,0.053,-0.037,0.029,106.0,104.0,103.0,13.3,1505.3,324.6,-0.7,1.8,2470.399,13.32,0.064,124.9
2020-11-09T09:46:03,42.805,6.029,0.052,-0.068,0.003,106.0,106.0,102.0,13.4,1505.3,324.0,-0.7,1.8,2470.43,13.32,0.085,142.6
2020-11-09T09:49:03,42.805,6.029,0.028,-0.051,0.019,105.0,105.0,103.0,13.4,1505.3,325.1,-0.7,1.8,2470.417,13.32,0.058,151.2
2020-11-09T09:52:03,42.805,6.029,0.066,-0.058,0.017,106.0,105.0,102.0,13.4,1505.3,328.0,-0.7,1.8,2470.429,13.32,0.087,131.3
2020-11-09T09:55:03,42.805,6.029,0.048,-0.069,0.004,106.0,106.0,103.0,13.4,1505.3,326.1,-0.7,1.8,2470.43,13.32,0.084,145.2